Regional Weather Roundup
Issued by NWS Burlington, VT

Home | Current Version | Previous Version | Text Only | Print | Product List | Glossary On
Versions: 1 2 3 4 5 6 7 8 9 10 11 12 13 14 15 16 17 18 19 20 21 22 23 24 25 26 27
000
ASUS41 KBTV 241610
RWRBTV
VERMONT REGIONAL WEATHER ROUNDUP
NATIONAL WEATHER SERVICE BURLINGTON VT
1200 PM EDT FRI OCT 24 2014

NOTE: "FAIR" INDICATES FEW OR NO CLOUDS BELOW 12,000 FEET WITH NO
SIGNIFICANT WEATHER AND/OR OBSTRUCTIONS TO VISIBILITY.

* THESE REPORTS ARE NOT UNDER NWS QUALITY CONTROL AND/OR DO NOT
  REPORT WEATHER SUCH AS PRECIPITATION AND FOG.

VTZ001>019-241700-
_____VERMONT_____


CITY           SKY/WX    TMP DP  RH WIND       PRES   REMARKS
BURLINGTON     CLOUDY    44  40  85 N10       29.86F FOG
MONTPELIER     CLOUDY    41  40  96 N8        29.84S
MORRISVILLE    CLOUDY    43  38  82 N9        29.83F
ST. JOHNSBURY*   N/A     46  40  79 MISG      29.77S
LYNDONVILLE*   CLOUDY    45  39  81 W12G20    29.79F
MIDDLEBURY*    CLOUDY    44  44 100 N9G17     29.84S
RUTLAND*       CLOUDY    41  39  93 NW13G24   29.82S
SPRINGFIELD    CLOUDY    47  41  80 W8        29.78S
HIGHGATE*      CLOUDY    45  38  79 N9G16     29.86F
NEWPORT*       CLOUDY    41  40  97 NW7       29.81F FOG
BENNINGTON     CLOUDY    45  40  82 NW9       29.83S
SUTTON*          N/A     43 N/A N/A MISG        N/A

_____LAKE CHAMPLAIN_____


CITY           SKY/WX    TMP DP  RH WIND       PRES   REMARKS
COLCHESTER RF*   N/A     46  41  81 NE15        N/A
DIAMOND ISL*     N/A     46  41  81 N16         N/A

$$

NYZ007-026>031-035-052-083-241700-
_____NORTHERN NEW YORK_____


CITY           SKY/WX    TMP DP  RH WIND       PRES   REMARKS
PLATTSBURGH    CLOUDY    49  40  71 N17       29.87S
SARANAC LAKE   CLOUDY    42  39  89 N6        29.86S
MASSENA          N/A     51  43  74 CALM      29.92F
OGDENSBURG*    PTSUNNY   55  43  62 CALM      29.91F
POTSDAM*       CLOUDY    50  46  87 CALM      29.91S
WATERTOWN      SUNNY     57  41  55 CALM      29.92F
FT DRUM        SUNNY     54  40  60 NW6       29.91F
ALBANY         DRIZZLE   47  44  90 NE3       29.86S FOG
GLENS FALLS    CLOUDY    46  43  89 CALM      29.85S

$$
NHZ002-005-011-241700-
_____NEW HAMPSHIRE_____


CITY           SKY/WX    TMP DP  RH WIND       PRES   REMARKS
LEBANON        CLOUDY    48  40  73 N8        29.77S
KEENE          CLOUDY    46  37  71 N6        29.77S
MT WASHINGTON  FOG       32  32 100 N17         N/A  VSB 1/8
PLYMOUTH       CLOUDY    48  46  91 W10G20    29.73S
WHITEFIELD     CLOUDY    46  43  89 CALM      29.76F FOG

$$

_____REGIONAL QUEBEC LOCATIONS_____


CITY           SKY/WX    TMP DP  RH WIND       PRES   REMARKS
MONTREAL       PTSUNNY   52  39  62 N8        29.89S
QUEBEC CITY    PTSUNNY   46  34  61 NE6       29.86F

_____REGIONAL ONTARIO LOCATIONS_____


CITY           SKY/WX    TMP DP  RH WIND       PRES   REMARKS
OTTAWA         MOSUNNY   55  39  54 W6        29.92F

______KEY______
VSB  - VISIBILITY IN MILES
WCI  - WIND CHILL INDEX
HX   - HEAT INDEX
$$
NNNN



USA.gov is the U.S. government's official web portal to all federal, state and local government web resources and services.